Time,TemperatureF,DewpointF,PressureIn,WindDirection,WindDirectionDegrees,WindSpeedMPH,WindSpeedGustMPH,Humidity,HourlyPrecipIn,Conditions,Clouds,dailyrainin,SoftwareType,DateUTC
2013-06-14 01:00:00,83.0,80.0,29.91,WSW,250,8.0,12.0,89,-99.99,,,-99.99,,2013-06-14 06:00:00,
2013-06-14 01:33:00,83.0,80.0,29.91,WSW,250,8.0,12.0,89,-99.99,,,-99.99,,2013-06-14 06:33:00,
2013-06-14 01:43:00,83.0,80.0,29.91,WSW,250,8.0,12.0,89,-99.99,,,-99.99,,2013-06-14 06:43:00,
2013-06-14 01:52:00,83.0,80.0,29.91,WSW,250,8.0,12.0,89,-99.99,,,-99.99,,2013-06-14 06:52:00,
2013-06-14 02:00:00,83.0,80.0,29.88,SW,230,10.0,14.0,90,-99.99,,,-99.99,,2013-06-14 07:00:00,
2013-06-14 02:32:00,83.0,80.0,29.88,SW,230,10.0,14.0,90,-99.99,,,-99.99,,2013-06-14 07:32:00,
2013-06-14 02:43:00,83.0,80.0,29.88,SW,230,10.0,14.0,90,-99.99,,,-99.99,,2013-06-14 07:43:00,
2013-06-14 02:53:00,83.0,80.0,29.88,SW,230,10.0,14.0,90,-99.99,,,-99.99,,2013-06-14 07:53:00,
2013-06-14 03:00:00,83.0,80.0,29.85,WSW,250,10.0,14.0,87,-99.99,,,-99.99,,2013-06-14 08:00:00,
2013-06-14 03:32:00,83.0,80.0,29.85,WSW,250,10.0,14.0,87,-99.99,,,-99.99,,2013-06-14 08:32:00,
2013-06-14 03:42:00,83.0,80.0,29.85,WSW,250,10.0,14.0,87,-99.99,,,-99.99,,2013-06-14 08:42:00,
2013-06-14 03:52:00,83.0,80.0,29.85,WSW,250,10.0,14.0,87,-99.99,,,-99.99,,2013-06-14 08:52:00,
2013-06-14 04:00:00,84.0,79.0,29.86,West,260,9.0,13.0,85,-99.99,,,-99.99,,2013-06-14 09:00:00,
2013-06-14 04:33:00,84.0,79.0,29.86,West,260,9.0,13.0,85,-99.99,,,-99.99,,2013-06-14 09:33:00,
2013-06-14 04:43:00,84.0,79.0,29.86,West,260,9.0,13.0,85,-99.99,,,-99.99,,2013-06-14 09:43:00,
2013-06-14 04:52:00,84.0,79.0,29.86,West,260,9.0,13.0,85,-99.99,,,-99.99,,2013-06-14 09:52:00,
2013-06-14 05:00:00,84.0,78.0,29.88,West,280,7.0,10.0,81,-99.99,,,-99.99,,2013-06-14 10:00:00,
2013-06-14 05:33:00,84.0,78.0,29.88,West,280,7.0,10.0,81,-99.99,,,-99.99,,2013-06-14 10:33:00,
2013-06-14 05:43:00,84.0,78.0,29.88,West,280,7.0,10.0,81,-99.99,,,-99.99,,2013-06-14 10:43:00,
2013-06-14 05:52:00,84.0,78.0,29.88,West,280,7.0,10.0,81,-99.99,,,-99.99,,2013-06-14 10:52:00,
2013-06-14 06:00:00,81.0,74.0,29.89,NW,310,18.0,20.0,81,-99.99,,,-99.99,,2013-06-14 11:00:00,
2013-06-14 06:22:00,81.0,74.0,29.89,NW,310,18.0,20.0,81,-99.99,,,-99.99,,2013-06-14 11:22:00,
2013-06-14 06:32:00,81.0,74.0,29.89,NW,310,18.0,20.0,81,-99.99,,,-99.99,,2013-06-14 11:32:00,
2013-06-14 06:43:00,81.0,74.0,29.89,NW,310,18.0,20.0,81,-99.99,,,-99.99,,2013-06-14 11:43:00,
2013-06-14 06:52:00,81.0,74.0,29.89,NW,310,18.0,20.0,81,-99.99,,,-99.99,,2013-06-14 11:52:00,
2013-06-14 08:00:00,81.0,75.0,29.89,West,270,7.0,9.0,81,-99.99,,,-99.99,,2013-06-14 13:00:00,
2013-06-14 08:33:00,81.0,75.0,29.89,West,270,7.0,9.0,81,-99.99,,,-99.99,,2013-06-14 13:33:00,
2013-06-14 08:43:00,81.0,75.0,29.89,West,270,7.0,9.0,81,-99.99,,,-99.99,,2013-06-14 13:43:00,
2013-06-14 08:52:00,81.0,75.0,29.89,West,270,7.0,9.0,81,-99.99,,,-99.99,,2013-06-14 13:52:00,
2013-06-14 09:00:00,83.0,74.0,29.89,WNW,300,15.0,16.0,76,-99.99,,,-99.99,,2013-06-14 14:00:00,
2013-06-14 09:33:00,83.0,74.0,29.89,WNW,300,15.0,16.0,76,-99.99,,,-99.99,,2013-06-14 14:33:00,
2013-06-14 09:43:00,83.0,74.0,29.89,WNW,300,15.0,16.0,76,-99.99,,,-99.99,,2013-06-14 14:43:00,
2013-06-14 09:52:00,83.0,74.0,29.89,WNW,300,15.0,16.0,76,-99.99,,,-99.99,,2013-06-14 14:52:00,
2013-06-14 10:00:00,81.0,76.0,29.89,NW,310,14.0,15.0,82,-99.99,,,-99.99,,2013-06-14 15:00:00,
2013-06-14 10:33:00,81.0,76.0,29.89,NW,310,14.0,15.0,82,-99.99,,,-99.99,,2013-06-14 15:33:00,
2013-06-14 10:43:00,81.0,76.0,29.89,NW,310,14.0,15.0,82,-99.99,,,-99.99,,2013-06-14 15:43:00,
2013-06-14 10:52:00,81.0,76.0,29.89,NW,310,14.0,15.0,82,-99.99,,,-99.99,,2013-06-14 15:52:00,
2013-06-14 11:00:00,83.0,76.0,29.89,NNW,330,9.0,9.0,81,-99.99,,,-99.99,,2013-06-14 16:00:00,
2013-06-14 11:32:00,83.0,76.0,29.89,NNW,330,9.0,9.0,81,-99.99,,,-99.99,,2013-06-14 16:32:00,
2013-06-14 11:43:00,83.0,76.0,29.89,NNW,330,9.0,9.0,81,-99.99,,,-99.99,,2013-06-14 16:43:00,
2013-06-14 11:52:00,83.0,76.0,29.89,NNW,330,9.0,9.0,81,-99.99,,,-99.99,,2013-06-14 16:52:00,
2013-06-14 12:00:00,81.0,76.0,29.89,North,10,15.0,17.0,85,-99.99,,,-99.99,,2013-06-14 17:00:00,
2013-06-14 12:34:00,81.0,76.0,29.89,North,10,15.0,17.0,85,-99.99,,,-99.99,,2013-06-14 17:34:00,
2013-06-14 12:43:00,81.0,76.0,29.89,North,10,15.0,17.0,85,-99.99,,,-99.99,,2013-06-14 17:43:00,
2013-06-14 12:53:00,81.0,76.0,29.89,North,10,15.0,17.0,85,-99.99,,,-99.99,,2013-06-14 17:53:00,
2013-06-14 14:00:00,83.0,75.0,29.88,NE,40,12.0,13.0,78,-99.99,,,-99.99,,2013-06-14 19:00:00,
2013-06-14 14:32:00,83.0,75.0,29.88,NE,40,12.0,13.0,78,-99.99,,,-99.99,,2013-06-14 19:32:00,
2013-06-14 14:42:00,83.0,75.0,29.88,NE,40,12.0,13.0,78,-99.99,,,-99.99,,2013-06-14 19:42:00,
2013-06-14 14:53:00,83.0,75.0,29.88,NE,40,12.0,13.0,78,-99.99,,,-99.99,,2013-06-14 19:53:00,
2013-06-14 15:00:00,84.0,75.0,29.88,ENE,60,6.0,7.0,74,-99.99,,,-99.99,,2013-06-14 20:00:00,
2013-06-14 15:33:00,84.0,75.0,29.88,ENE,60,6.0,7.0,74,-99.99,,,-99.99,,2013-06-14 20:33:00,
2013-06-14 15:43:00,84.0,75.0,29.88,ENE,60,6.0,7.0,74,-99.99,,,-99.99,,2013-06-14 20:43:00,
2013-06-14 15:53:00,84.0,75.0,29.88,ENE,60,6.0,7.0,74,-99.99,,,-99.99,,2013-06-14 20:53:00,
2013-06-14 16:00:00,86.0,75.0,29.86,NNE,30,5.0,6.0,69,-99.99,,,-99.99,,2013-06-14 21:00:00,
2013-06-14 16:42:00,86.0,75.0,29.86,NNE,30,5.0,6.0,69,-99.99,,,-99.99,,2013-06-14 21:42:00,
2013-06-14 16:52:00,86.0,75.0,29.86,NNE,30,5.0,6.0,69,-99.99,,,-99.99,,2013-06-14 21:52:00,
2013-06-14 17:00:00,87.0,72.0,29.85,NNE,20,12.0,13.0,61,-99.99,,,-99.99,,2013-06-14 22:00:00,
2013-06-14 17:33:00,87.0,72.0,29.85,NNE,20,12.0,13.0,61,-99.99,,,-99.99,,2013-06-14 22:33:00,
2013-06-14 17:42:00,87.0,72.0,29.85,NNE,20,12.0,13.0,61,-99.99,,,-99.99,,2013-06-14 22:42:00,
2013-06-14 17:52:00,87.0,72.0,29.85,NNE,20,12.0,13.0,61,-99.99,,,-99.99,,2013-06-14 22:52:00,
2013-06-14 18:00:00,88.0,72.0,29.85,NNE,20,15.0,16.0,59,-99.99,,,-99.99,,2013-06-14 23:00:00,
2013-06-14 18:32:00,88.0,72.0,29.85,NNE,20,15.0,16.0,59,-99.99,,,-99.99,,2013-06-14 23:32:00,
2013-06-14 18:42:00,88.0,72.0,29.85,NNE,20,15.0,16.0,59,-99.99,,,-99.99,,2013-06-14 23:42:00,
2013-06-14 18:52:00,88.0,72.0,29.85,NNE,20,15.0,16.0,59,-99.99,,,-99.99,,2013-06-14 23:52:00,
2013-06-14 19:00:00,87.0,73.0,29.86,North,10,15.0,16.0,62,-99.99,,,-99.99,,2013-06-15 00:00:00,
2013-06-14 19:33:00,87.0,73.0,29.86,North,10,15.0,16.0,62,-99.99,,,-99.99,,2013-06-15 00:33:00,
2013-06-14 19:43:00,87.0,73.0,29.86,North,10,15.0,16.0,62,-99.99,,,-99.99,,2013-06-15 00:43:00,
2013-06-14 19:52:00,87.0,73.0,29.86,North,10,15.0,16.0,62,-99.99,,,-99.99,,2013-06-15 00:52:00,
2013-06-14 21:00:00,87.0,71.0,29.89,North,10,16.0,18.0,59,-99.99,,,-99.99,,2013-06-15 02:00:00,
2013-06-14 21:33:00,87.0,71.0,29.89,North,10,16.0,18.0,59,-99.99,,,-99.99,,2013-06-15 02:33:00,
2013-06-14 21:42:00,87.0,71.0,29.89,North,10,16.0,18.0,59,-99.99,,,-99.99,,2013-06-15 02:42:00,
2013-06-14 21:53:00,87.0,71.0,29.89,North,10,16.0,18.0,59,-99.99,,,-99.99,,2013-06-15 02:53:00,
2013-06-14 22:00:00,85.0,71.0,29.91,North,10,21.0,22.0,62,-99.99,,,-99.99,,2013-06-15 03:00:00,
2013-06-14 22:32:00,85.0,71.0,29.91,North,10,21.0,22.0,62,-99.99,,,-99.99,,2013-06-15 03:32:00,
2013-06-14 22:43:00,85.0,71.0,29.91,North,10,21.0,22.0,62,-99.99,,,-99.99,,2013-06-15 03:43:00,
2013-06-14 22:52:00,85.0,71.0,29.91,North,10,21.0,22.0,62,-99.99,,,-99.99,,2013-06-15 03:52:00,
2013-06-14 23:00:00,85.0,71.0,29.93,NNE,20,20.0,21.0,62,-99.99,,,-99.99,,2013-06-15 04:00:00,
2013-06-14 23:33:00,85.0,71.0,29.93,NNE,20,20.0,21.0,62,-99.99,,,-99.99,,2013-06-15 04:33:00,
2013-06-14 23:43:00,85.0,71.0,29.93,NNE,20,20.0,21.0,62,-99.99,,,-99.99,,2013-06-15 04:43:00,
2013-06-14 23:53:00,85.0,71.0,29.93,NNE,20,20.0,21.0,62,-99.99,,,-99.99,,2013-06-15 04:53:00,